Location: L�gaud
(45.7115°N, 1.7775°E)
Time: 07:03:41
(UTC+00:00)

ATLAS CENTAUR R/B - Pass Details

Date: 03 March 2021
Orbit: 475 x 670 km, 64.7° (Epoch: 30 March)

Event Time Altitude Azimuth Distance (km) Brightness Sun altitude
Rises 18:17:52 0° 187° (S) 2,524 4.8 -7.0°
Reaches altitude 10° 18:20:13 10° 174° (S) 1,640 3.7 -7.4°
Maximum altitude 18:23:17 26° 117° (ESE) 972 2.1 -7.9°
Drops below altitude 10° 18:26:22 10° 59° (ENE) 1,654 3.2 -8.4°
Enters shadow 18:27:02 - 54° (NE) 1,894 3.6 -8.6°
